Location: Laan Hart van Zuid
(52.2563°N, 6.7904°E)
Time: 07:48:27
(UTC+02:00)

ISS - Visible Passes

Search period start: 12 September 2024 00:00
Search period end: 22 September 2024 00:00
Orbit: 415 x 425 km, 51.6° (Epoch: 11 September)

Date Brightness Start Highest point End Pass type
(mag) Time Alt. Az. Time Alt. Az. Time Alt. Az.
12 Sep -1.7 20:40:07 10° SSE 20:41:40 13° SE 20:42:53 11° ESE visible
12 Sep -1.8 22:14:37 10° SW 22:15:53 20° SW 22:15:53 20° SW visible
13 Sep -3.0 21:27:24 10° SW 21:30:29 33° SSE 21:30:44 33° SE visible
13 Sep -0.6 23:03:41 10° WSW 23:03:42 10° WSW 23:03:42 10° WSW visible
14 Sep -2.5 20:40:16 10° SSW 20:43:04 25° SSE 20:45:20 13° E visible
14 Sep -2.5 22:16:12 10° WSW 22:18:19 35° WSW 22:18:19 35° WSW visible
15 Sep -3.7 21:28:41 10° WSW 21:31:59 56° SSE 21:32:44 43° ESE visible
15 Sep -0.7 23:05:20 10° W 23:05:42 12° W 23:05:42 12° W visible
16 Sep -3.3 20:41:11 10° SW 20:44:24 44° SSE 20:47:00 14° E visible
16 Sep -2.6 22:17:42 10° W 22:19:57 39° W 22:19:57 39° W visible
17 Sep -3.9 21:30:01 10° WSW 21:33:22 77° S 21:34:06 51° E visible
17 Sep -0.6 23:06:46 10° W 23:07:02 12° W 23:07:02 12° W visible
18 Sep -3.7 20:42:17 10° WSW 20:45:37 68° SSE 20:48:08 16° E visible
18 Sep -2.3 22:19:00 10° W 22:21:04 35° W 22:21:04 35° W visible
19 Sep -3.9 21:31:11 10° W 21:34:33 82° S 21:35:02 63° ESE visible
20 Sep -3.8 20:43:18 10° W 20:46:40 82° S 20:48:54 20° E visible
20 Sep -1.9 22:20:04 10° W 22:21:50 27° W 22:21:50 27° W visible
21 Sep -3.8 21:32:07 10° W 21:35:29 68° SSW 21:35:39 66° SSE visible
